SCP
0 0 0 0 0 0 0 0 0 0 0 0 0 0 0 0 0 0 0 0 0 0 0 0 0 0 0 0 0 0 0 0 0 0 0 0 0 0 0 0 0 0 0
0 0 0 0 0 0 0 0 0 0 0 0 0 0 0 0 0 0 0 0 0 0 0 0 0 0 0 0 0 0 0 0 0 0 0 0 0 0 0 0 0 0 0
0 0 0 0 0 0 0 0 0 0 0 0 0 0 0 0 0 0 0 0 0 0 0 0 0 0 0 0 0 0 0 0 0 0 0 0 0 0 0 0 0 0 0
0 0 0 0 0 0 0 0 0 0 0 0 0 0 0 0 0 0 0 0 0 0 0 0 0 0 0 0 0 0 0 0 0 0 0 0 0 0 0 0 0 0 0
0 0 0 0 0 0 0 0 0 0 0 0 0 0 0 0 0 0 0 0 0 0 0 0 0 0 0 0 0 0 0 0 0 0 0 0 0 0 0 0 0 0 0
0 0 0 0 0 0 0 0 0 0 0 0 0 0 0 0 0 0 0 0 0 0 0 0 0 0 0 0 0 0 0 0 0 0 0 0 0 0 0 0 0 0 0
0 0 0 0 0 0 0 0 0 0 0 0 0 0 0 0 0 0 0 0 0 0 0 0 0 0 0 0 0 0 0 0 0 0 0 0 0 0 0 0 0 0 0
0 0 0 0 0 0 0 0 0 0 0 0 0 0 0 0 0 0 0 0 0 0 0 0 0 0 0 0 0 0 0 0 0 0 0 0 0 0 0 0 0 0 0
0 0 0 0 0 0 0 0 0 0 0 0 0 0 0 0 0 0 0 0 0 0 0 0 0 0 0 0 0 0 0 0 0 0 0 0 0 0 0 0 0 0 0
0 0 0 0 0 0 0 0 0 0 0 0 0 0 0 0 0 0 0 0 0 0 0 0 0 0 0 0 0 0 0 0 0 0 0 0 0 0 0 0 0 0 0
0 0 0 0 0 0 0 0 0 0 0 0 0 0 0 0 0 0 0 0 0 0 0 0 0 0 0 0 0 0 0 0 0 0 0 0 0 0 0 0 0 0 0
0 0 0 0 0 0 0 0 0 0 0 0 0 0 0 0 0 0 0 0 0 0 0 0 0 0 0 0 0 0 0 0 0 0 0 0 0 0 0 0 0 0 0
0 0 0 0 0 0 0 0 0 0 0 0 0 0 0 0 0 0 0 0 0 0 0 0 0 0 0 0 0 0 0 0 0 0 0 0 0 0 0 0 0 0 0
0 0 0 0 0 0 0 0 0 0 0 0 0 0 0 0 0 0 0 0 0 0 0 0 0 0 0 0 0 0 0 0 0 0 0 0 0 0 0 0 0 0 0
0 0 0 0 0 0 0 0 0 0 0 0 0 0 0 0 0 0 0 0 0 0 0 0 0 0 0 0 0 0 0 0 0 0 0 0 0 0 0 0 0 0 0
0 0 0 0 0 0 0 0 0 0 0 0 0 0 0 0 0 0 0 0 0 0 0 0 0 0 0 0 0 0 0 0 0 0 0 0 0 0 0 0 0 0 0
0 0 0 0 0 0 0 0 0 0 0 0 0 0 0 0 0 0 0 0 0 0 0 0 0 0 0 0 0 0 0 0 0 0 0 0 0 0 0 0 0 0 0
0 0 0 0 0 0 0 0 0 0 0 0 0 0 0 0 0 0 0 0 0 0 0 0 0 0 0 0 0 0 0 0 0 0 0 0 0 0 0 0 0 0 0
0 0 0 0 0 0 0 0 0 0 0 0 0 0 0 0 0 0 0 0 0 0 0 0 0 0 0 0 0 0 0 0 0 0 0 0 0 0 1 1 1 0 0
0 0 0 0 0 0 0 0 0 0 0 0 0 0 0 0 0 0 0 0 0 0 0 0 0 0 0 0 0 0 0 0 0 0 0 0 0 1 1 1 1 1 1
0 0 0 0 0 0 0 0 0 0 0 0 0 0 0 0 0 0 0 0 0 0 0 0 0 0 0 0 0 0 0 0 0 0 0 0 1 1 1 1 1 1 1
0 1 1 1 1 0 0 0 0 0 0 0 0 0 1 1 1 0 0 0 0 0 0 0 0 0 0 0 0 0 0 0 0 0 0 0 1 1 1 1 1 1 1
1 1 1 1 1 1 0 0 0 0 0 0 0 1 1 1 1 0 0 0 0 0 0 0 0 0 0 0 0 0 0 0 0 0 0 0 1 1 1 1 1 1 1
0 1 1 1 1 1 1 1 1 1 0 0 1 1 1 1 0 0 0 0 0 0 0 0 0 1 1 1 1 1 1 1 0 0 0 0 1 1 1 1 1 1 1
0 1 1 1 1 1 1 1 1 1 1 1 1 1 1 0 0 0 1 1 1 0 0 0 1 1 1 1 1 1 1 1 1 1 0 0 1 1 1 1 1 1 1
1 1 1 1 1 1 1 1 1 1 1 1 1 1 1 0 0 0 1 1 1 1 1 1 1 1 1 1 1 1 1 1 1 1 1 0 1 1 1 1 1 1 1
Wind_Speed
9 11 11 11 12 11 10 11 11 11 11 12 12 12 12 13 13 13 14 14 14 14 13 13 12 12 12 12 12 12 12 13 13 13 13 12 11 10 10 10 10 10 12
12 12 11 11 11 11 11 11 11 11 11 12 12 12 12 13 13 13 13 13 13 13 13 12 12 12 12 12 12 12 12 12 12 13 13 11 10 9 8 8 10 8 11
12 11 10 10 10 10 10 10 10 11 12 12 12 12 12 12 12 13 13 13 13 13 12 12 12 12 11 11 11 11 11 11 11 12 11 8 8 9 9 10 12 11 10
12 11 10 10 10 10 10 10 10 11 11 11 12 11 11 11 12 13 13 12 12 12 12 12 11 11 11 10 10 9 9 9 9 9 5 6 7 9 9 10 10 9 9
11 11 11 11 10 10 11 11 11 11 11 11 11 11 11 12 12 13 13 12 11 11 11 11 10 10 10 10 9 8 8 8 8 5 4 5 6 9 9 9 9 8 8
11 12 11 11 10 10 10 10 10 10 11 11 11 11 11 11 12 12 13 12 10 10 10 10 10 10 9 9 9 8 7 7 6 4 5 6 6 8 9 9 9 8 8
12 12 12 12 11 11 10 10 10 10 10 11 11 11 11 11 11 12 12 11 10 9 10 10 9 9 9 8 7 7 6 6 4 3 4 6 7 9 9 8 8 7 7
12 14 13 13 12 11 11 11 10 10 11 11 11 11 11 11 11 11 12 11 10 10 10 9 9 9 9 8 7 6 6 5 4 4 6 7 9 9 8 7 7 7 7
12 13 12 11 11 11 11 11 11 11 11 11 11 11 11 11 11 11 11 11 10 10 10 9 9 9 8 8 7 6 6 6 3 2 6 6 9 9 8 7 7 7 6
10 10 11 11 10 10 10 11 12 12 11 11 11 10 10 10 10 11 10 10 9 9 9 9 9 9 8 7 7 7 6 5 4 3 4 6 10 9 8 7 7 6 7
8 8 8 9 9 9 10 11 11 12 11 10 9 11 9 6 7 8 9 11 9 9 9 9 9 8 7 7 7 7 6 3 3 4 4 9 10 9 8 8 7 6 7
8 8 6 7 7 7 7 8 6 7 8 6 6 7 5 4 5 7 10 11 9 9 9 9 9 8 6 4 6 7 4 5 3 4 6 12 10 9 8 8 7 7 7
7 8 8 7 6 6 5 5 3 3 5 5 6 5 4 4 5 5 5 6 6 7 6 7 7 5 5 4 3 4 5 3 2 4 7 12 10 10 9 8 8 7 8
8 8 8 8 6 5 5 4 3 3 3 4 4 4 3 2 3 3 3 4 4 3 4 4 3 4 4 4 4 3 3 2 2 3 7 12 11 10 9 9 8 8 8
7 8 8 7 6 5 4 2 3 3 4 5 4 3 3 2 2 2 2 2 2 3 3 2 2 3 2 3 3 3 2 2 3 4 5 12 12 11 10 10 9 9 9
7 7 7 7 6 5 3 2 3 3 3 3 3 4 3 3 2 2 2 1 1 2 3 3 3 2 1 1 2 3 3 2 2 4 5 8 11 11 10 10 9 9 9
7 7 6 6 6 4 3 2 3 2 3 3 3 4 4 3 3 2 1 1 2 2 3 2 2 2 2 2 2 3 3 2 2 4 5 5 6 9 11 10 10 10 10
8 7 5 5 6 4 3 1 1 2 3 2 3 3 3 3 2 2 2 1 2 2 2 2 2 2 1 2 2 2 2 3 3 4 4 5 5 5 9 12 11 10 10
8 6 5 4 5 4 3 2 2 2 2 2 2 3 3 3 2 2 2 1 1 2 2 2 2 1 2 2 2 3 3 3 3 3 4 5 4 4 5 8 11 10 11
8 7 5 4 4 3 3 1 1 2 1 1 2 2 3 2 2 1 1 1 1 1 1 1 1 2 2 2 3 2 2 3 3 3 4 4 4 5 6 6 6 7 10
8 7 6 4 4 2 2 1 1 1 1 2 2 3 3 2 2 2 1 1 1 1 1 2 1 2 1 2 1 1 2 3 3 3 3 2 4 4 4 5 5 4 5
9 8 7 5 4 3 2 1 1 1 1 2 1 2 2 1 2 2 2 1 1 1 1 2 1 1 2 2 1 1 1 1 2 2 2 3 2 2 3 5 5 5 4
10 8 7 5 5 4 3 2 1 1 0 1 2 2 2 1 1 0 2 1 1 1 1 2 2 2 2 2 1 1 1 1 1 1 1 2 2 2 2 2 4 4 4
10 9 7 6 5 4 3 2 2 2 1 1 1 2 2 1 1 1 2 1 1 1 1 2 2 2 2 2 1 1 1 1 1 1 1 1 2 2 3 3 3 3 3
11 10 8 7 5 4 3 2 1 1 1 0 1 2 2 1 1 1 2 1 1 1 1 1 0 1 1 2 2 1 1 1 2 1 2 1 1 2 2 2 1 2 3
10 10 9 8 6 5 4 2 2 1 0 0 0 1 1 1 1 1 2 2 1 1 1 1 1 2 2 2 2 2 1 2 2 2 2 2 1 2 2 1 2 2 2
Wind_Direction
93 100 102 102 102 102 104 106 109 109 111 111 113 114 115 118 119 120 122 123 125 125 125 127 126 122 121 118 115 116 117 113 110 113 111 108 107 109 111 117 113 105 110
100 103 104 103 104 104 105 107 110 110 111 111 111 111 113 117 123 124 126 128 128 127 126 126 124 121 121 121 122 124 124 121 122 124 122 116 112 111 109 106 97 111 115
105 110 108 103 105 103 104 106 110 113 113 113 112 114 113 113 119 123 127 129 128 125 125 126 125 124 122 121 124 130 133 133 137 141 142 130 121 116 108 102 105 112 115
110 112 109 108 106 106 106 107 110 113 113 113 113 116 116 115 119 124 125 127 125 125 126 127 128 129 126 127 129 135 142 145 149 157 157 127 122 119 114 112 114 118 121
111 112 111 112 113 113 112 109 109 113 115 115 114 114 115 117 121 125 123 125 126 128 131 132 133 134 133 135 136 144 153 156 165 177 127 111 109 123 120 121 121 124 127
117 117 117 118 116 116 117 116 114 115 117 117 117 116 118 119 123 124 124 126 129 131 135 137 138 141 138 141 147 159 165 170 182 175 134 121 116 130 127 125 125 127 130
119 122 125 127 124 122 122 121 118 118 120 119 119 120 120 120 124 126 125 129 131 134 140 143 143 145 146 148 159 175 179 188 210 150 127 118 123 134 133 133 134 137 136
115 122 129 133 131 127 125 124 123 124 122 122 123 125 125 124 125 128 128 131 133 134 138 142 146 152 155 161 173 187 196 222 185 151 124 116 130 136 137 139 143 147 147
114 124 131 136 136 133 129 129 128 129 127 127 128 130 131 131 131 132 133 137 140 142 145 148 150 154 161 168 180 194 216 235 239 166 134 127 139 144 147 150 153 156 157
101 117 128 135 135 138 135 135 136 137 136 137 139 141 144 141 138 139 141 143 145 148 152 155 154 156 163 175 190 205 223 244 222 148 122 134 147 154 155 158 163 167 170
97 105 118 126 137 141 136 135 141 144 148 150 153 157 157 154 149 148 143 146 151 153 156 160 160 166 172 187 205 214 226 234 188 133 126 140 154 161 165 168 171 178 180
98 104 110 118 125 128 125 132 143 146 149 159 152 161 165 154 142 138 143 152 158 162 163 171 171 177 188 195 209 215 229 217 178 138 143 153 161 169 173 176 180 184 185
96 95 96 100 108 107 110 129 128 130 138 140 140 148 142 137 139 141 147 153 162 171 174 170 181 194 193 189 190 203 221 203 163 147 153 160 165 173 179 184 187 189 192
93 88 87 92 89 89 95 108 125 128 129 128 134 135 133 137 135 139 148 151 162 166 162 171 183 187 188 192 200 212 222 194 155 135 154 165 172 178 182 188 192 195 198
94 94 92 90 91 90 89 104 108 108 121 121 126 129 123 116 112 122 130 142 151 143 151 176 179 173 181 195 207 203 230 207 154 152 153 172 178 184 187 191 197 202 204
103 96 95 95 90 88 95 94 92 100 104 112 117 117 117 112 117 115 131 142 144 142 143 162 163 159 185 198 211 200 215 219 166 158 158 178 186 188 190 194 199 203 207
106 102 102 104 101 104 115 127 115 120 111 109 109 114 119 120 127 135 148 166 159 143 136 155 154 149 191 203 213 213 203 211 189 170 170 171 182 193 195 197 203 210 214
113 108 112 116 114 110 103 94 76 91 101 111 119 118 124 131 134 138 153 163 152 151 160 176 174 167 187 211 219 221 204 199 199 184 186 182 180 186 195 200 205 213 218
118 115 111 100 112 118 113 106 110 100 102 116 122 126 134 136 140 149 135 148 196 173 171 198 148 164 199 216 228 222 211 201 187 203 196 193 186 181 179 194 203 211 216
127 121 118 109 103 112 113 114 112 107 106 117 107 112 121 134 148 144 155 166 202 167 159 141 149 194 209 220 246 241 232 204 192 201 206 198 191 195 187 185 192 208 214
133 131 127 125 117 113 109 134 133 122 145 129 133 130 131 145 150 161 150 156 201 166 169 178 179 198 226 224 231 261 252 221 200 200 201 205 197 198 187 180 184 188 199
141 139 139 143 141 138 135 137 131 123 163 135 99 117 137 159 163 174 150 185 195 159 187 206 186 204 236 213 203 205 261 259 252 212 181 201 198 196 194 192 186 190 195
149 148 150 145 145 158 155 144 163 154 77 109 140 139 148 150 141 113 124 173 163 177 192 216 206 211 235 255 215 197 231 243 284 247 212 191 180 177 202 214 197 197 202
154 152 141 141 144 149 153 172 183 160 162 168 145 141 143 135 151 152 144 163 189 249 185 225 197 228 218 248 254 230 216 201 213 263 276 231 194 193 206 220 198 178 184
159 155 147 142 147 149 164 168 167 153 161 160 139 136 141 161 191 186 154 161 188 230 241 265 64 247 253 255 259 245 247 242 225 215 251 241 230 226 209 210 181 177 177
163 156 150 146 150 153 158 162 160 197 203 333 9 121 177 177 187 186 160 167 189 215 249 255 241 253 267 280 286 283 264 255 241 224 241 236 222 225 198 184 177 182 178